EW4565 Weather Reports


Display with metric or nautical units.
time (UTC)temp
F
wind
direction
speed
MPH
gust
MPH
rain 1hr
in
rain 24hr
in
rain mn
in
humidity
%
barometer
mb
20260506035906 61 202 0.0 1.0 0.00 0.00 0.00 40 1011.2
20260506035710 61 202 0.0 1.0 0.00 0.00 0.00 40 1011.2
20260506034904 62 202 0.0 0.0 0.00 0.00 0.00 40 1011.1
20260506034653 62 202 0.0 0.0 0.00 0.00 0.00 40 1011.1
20260506033905 63 201 0.0 0.0 0.00 0.00 0.00 41 1010.9
20260506033405 64 201 0.0 0.0 0.00 0.00 0.00 39 1010.9
20260506032905 64 201 0.0 0.0 0.00 0.00 0.00 39 1010.7
20260506032405 65 201 0.0 0.0 0.00 0.00 0.00 39 1010.6
20260506031905 65 201 0.0 0.0 0.00 0.00 0.00 39 1010.5
20260506031403 66 201 0.0 0.0 0.00 0.00 0.00 38 1010.5
20260506030903 67 201 0.0 0.0 0.00 0.00 0.00 38 1010.5
20260506030404 67 201 0.0 0.0 0.00 0.00 0.00 38 1010.5
20260506025904 68 201 0.0 0.0 0.00 0.00 0.00 37 1010.4
20260506025405 69 201 0.0 0.0 0.00 0.00 0.00 36 1010.3
20260506024903 70 201 0.0 0.0 0.00 0.00 0.00 33 1010.3
20260506024406 71 201 0.0 0.0 0.00 0.00 0.00 32 1010.2
20260506023904 71 201 0.0 2.0 0.00 0.00 0.00 33 1010.2
20260506023404 72 201 0.0 2.0 0.00 0.00 0.00 29 1010.2
20260506022905 72 201 0.0 2.0 0.00 0.00 0.00 26 1010.1
20260506022404 72 201 0.0 2.0 0.00 0.00 0.00 26 1010.1
20260506021904 73 201 0.0 1.0 0.00 0.00 0.00 26 1010.0
20260506021656 73 201 0.0 1.0 0.00 0.00 0.00 27 1010.0
20260506020903 73 201 0.0 1.0 0.00 0.00 0.00 26 1010.0
20260506020403 73 201 0.0 2.0 0.00 0.00 0.00 26 1010.0
20260506015907 73 201 0.0 2.0 0.00 0.00 0.00 26 1010.0
20260506015511 73 198 0.0 3.0 0.00 0.00 0.00 25 1010.1
20260506015447 73 199 0.0 3.0 0.00 0.00 0.00 27 1010.0
20260506014404 73 220 0.0 3.0 0.00 0.00 0.00 26 1010.0
20260506013904 73 219 1.0 3.0 0.00 0.00 0.00 27 1010.0
20260506013406 73 219 0.0 3.0 0.00 0.00 0.00 24 1010.0
20260506012905 74 218 1.0 3.0 0.00 0.00 0.00 25 1010.0
20260506012405 74 218 1.0 3.0 0.00 0.00 0.00 25 1010.0
20260506011905 74 218 0.0 3.0 0.00 0.00 0.00 25 1010.0
20260506011403 74 218 1.0 4.0 0.00 0.00 0.00 25 1010.1
20260506010905 74 218 0.0 4.0 0.00 0.00 0.00 24 1010.1
20260506010405 74 213 0.0 2.0 0.00 0.00 0.00 27 1010.1
20260506005905 74 213 0.0 4.0 0.00 0.00 0.00 25 1010.1
20260506005403 74 213 0.0 4.0 0.00 0.00 0.00 27 1010.1
20260506004907 74 212 0.0 4.0 0.00 0.00 0.00 26 1010.1
20260506004407 74 175 0.0 3.0 0.00 0.00 0.00 27 1010.1
20260506003903 74 175 0.0 3.0 0.00 0.00 0.00 27 1010.1
20260506003404 74 175 0.0 3.0 0.00 0.00 0.00 26 1010.2
20260506002904 74 176 0.0 3.0 0.00 0.00 0.00 26 1010.3
20260506002404 74 235 0.0 2.0 0.00 0.00 0.00 27 1010.3
20260506001907 74 235 1.0 4.0 0.00 0.00 0.00 26 1010.3
20260506001405 74 239 1.0 4.0 0.00 0.00 0.00 26 1010.4
20260506000903 74 239 1.0 5.0 0.00 0.00 0.00 25 1010.5
20260506000658 74 235 1.0 5.0 0.00 0.00 0.00 25 1010.6
20260506000208 75 212 1.0 4.0 0.00 0.00 0.00 25 1010.6
20260505235712 75 208 1.0 4.0 0.00 0.00 0.00 25 1010.7
20260505234904 75 255 1.0 4.0 0.00 0.00 0.00 24 1010.7
20260505234702 75 218 0.0 3.0 0.00 0.00 0.00 24 1010.8
20260505233904 75 218 0.0 2.0 0.00 0.00 0.00 25 1010.8
20260505233704 75 217 0.0 4.0 0.00 0.00 0.00 26 1010.9
20260505232902 74 218 1.0 4.0 0.00 0.00 0.00 25 1010.9
20260505232404 74 218 1.0 4.0 0.00 0.00 0.00 25 1011.1
20260505231902 74 204 1.0 5.0 0.00 0.00 0.00 24 1011.1
20260505231400 75 213 1.0 5.0 0.00 0.00 0.00 24 1011.2
20260505230902 75 241 1.0 4.0 0.00 0.00 0.00 26 1011.2
20260505230402 75 283 0.0 4.0 0.00 0.00 0.00 25 1011.2
20260505225904 74 277 1.0 4.0 0.00 0.00 0.00 26 1011.3
20260505225401 74 282 1.0 4.0 0.00 0.00 0.00 26 1011.4
20260505224901 74 199 0.0 2.0 0.00 0.00 0.00 26 1011.5
20260505224401 73 199 1.0 4.0 0.00 0.00 0.00 24 1011.5
20260505223902 73 199 1.0 4.0 0.00 0.00 0.00 25 1011.7
20260505223404 73 204 1.0 3.0 0.00 0.00 0.00 25 1011.7
20260505222902 73 206 1.0 6.0 0.00 0.00 0.00 24 1011.8
20260505222401 73 167 1.0 6.0 0.00 0.00 0.00 24 1011.9
20260505221900 73 221 0.0 4.0 0.00 0.00 0.00 26 1011.9
20260505221402 72 136 1.0 4.0 0.00 0.00 0.00 26 1011.9
20260505220902 72 136 1.0 4.0 0.00 0.00 0.00 26 1012.0
20260505220704 72 132 1.0 6.0 0.00 0.00 0.00 27 1012.1
20260505215900 72 130 1.0 6.0 0.00 0.00 0.00 27 1012.1
20260505215706 72 180 1.0 10.0 0.00 0.00 0.00 25 1012.3
20260505214901 72 256 1.0 10.0 0.00 0.00 0.00 27 1012.3
20260505214402 72 247 1.0 5.0 0.00 0.00 0.00 27 1012.5
20260505213900 72 249 1.0 5.0 0.00 0.00 0.00 26 1012.6
20260505213401 71 169 0.0 4.0 0.00 0.00 0.00 27 1012.8
20260505212902 71 177 1.0 4.0 0.00 0.00 0.00 27 1012.9
20260505212403 71 139 1.0 5.0 0.00 0.00 0.00 27 1012.9
20260505211901 71 152 2.0 5.0 0.00 0.00 0.00 26 1012.9
20260505211401 71 65 2.0 7.0 0.00 0.00 0.00 28 1013.0
20260505210900 71 63 2.0 7.0 0.00 0.00 0.00 26 1013.0
20260505210715 71 133 1.0 4.0 0.00 0.00 0.00 27 1013.0
20260505205905 71 194 1.0 4.0 0.00 0.00 0.00 29 1013.0
20260505205658 71 224 1.0 5.0 0.00 0.00 0.00 29 1013.0
20260505204903 70 248 1.0 5.0 0.00 0.00 0.00 27 1013.2
20260505204406 70 156 1.0 3.0 0.00 0.00 0.00 27 1013.3
20260505203903 70 156 1.0 6.0 0.00 0.00 0.00 28 1013.3
20260505203407 70 154 1.0 6.0 0.00 0.00 0.00 29 1013.3
20260505202904 70 137 1.0 4.0 0.00 0.00 0.00 28 1013.3
20260505202402 70 132 1.0 4.0 0.00 0.00 0.00 28 1013.4
20260505201902 69 132 1.0 6.0 0.00 0.00 0.00 28 1013.5
20260505201402 69 163 1.0 6.0 0.00 0.00 0.00 29 1013.6
20260505201201 68 54 2.0 9.0 0.00 0.00 0.00 28 1013.7
20260505200518 69 39 1.0 5.0 0.00 0.00 0.00 30 1013.7
20260505200453 69 48 2.0 9.0 0.00 0.00 0.00 27 1013.8
20260505195404 69 154 1.0 5.0 0.00 0.00 0.00 30 1013.8
20260505194902 68 136 1.0 6.0 0.00 0.00 0.00 29 1014.0
20260505194702 68 137 2.0 7.0 0.00 0.00 0.00 31 1014.0
20260505193901 67 138 2.0 10.0 0.00 0.00 0.00 30 1013.9
20260505193405 67 271 1.0 10.0 0.00 0.00 0.00 32 1014.0
20260505192906 67 144 1.0 5.0 0.00 0.00 0.00 31 1014.1
20260505192458 67 251 1.0 6.0 0.00 0.00 0.00 31 1014.2
20260505192442 67 148 1.0 6.0 0.00 0.00 0.00 31 1014.1
20260505191405 67 125 1.0 4.0 0.00 0.00 0.00 30 1014.2
20260505190905 67 127 1.0 4.0 0.00 0.00 0.00 32 1014.2
20260505190711 67 77 1.0 5.0 0.00 0.00 0.00 31 1014.3
20260505185905 67 63 1.0 6.0 0.00 0.00 0.00 31 1014.3
20260505185404 67 177 1.0 6.0 0.00 0.00 0.00 30 1014.5
20260505185211 66 147 1.0 4.0 0.00 0.00 0.00 32 1014.6
20260505184404 66 141 1.0 5.0 0.00 0.00 0.00 31 1014.7
20260505183905 66 139 1.0 7.0 0.00 0.00 0.00 31 1014.7
20260505183404 66 143 1.0 7.0 0.00 0.00 0.00 31 1014.7
20260505182907 66 186 1.0 5.0 0.00 0.00 0.00 31 1014.8
20260505182405 65 128 1.0 5.0 0.00 0.00 0.00 30 1014.8
20260505181903 65 175 1.0 5.0 0.00 0.00 0.00 31 1014.8
20260505181405 65 143 1.0 5.0 0.00 0.00 0.00 31 1014.8
20260505180903 65 195 1.0 4.0 0.00 0.00 0.00 32 1014.8
20260505180405 65 187 1.0 4.0 0.00 0.00 0.00 32 1014.9
20260505180159 65 189 1.0 4.0 0.00 0.00 0.00 32 1014.9
20260505175405 65 193 1.0 4.0 0.00 0.00 0.00 34 1014.9
20260505174906 64 148 1.0 8.0 0.00 0.00 0.00 33 1014.9
20260505174408 64 154 1.0 8.0 0.00 0.00 0.00 37 1014.9
20260505174210 64 120 1.0 6.0 0.00 0.00 0.00 34 1014.9
20260505173402 64 97 1.0 5.0 0.00 0.00 0.00 34 1015.0
20260505172907 63 77 1.0 5.0 0.00 0.00 0.00 32 1015.0
20260505172401 63 104 1.0 5.0 0.00 0.00 0.00 31 1015.1
20260505171904 63 130 1.0 6.0 0.00 0.00 0.00 32 1015.3
20260505171401 63 115 1.0 6.0 0.00 0.00 0.00 34 1015.3
20260505171207 63 128 1.0 4.0 0.00 0.00 0.00 34 1015.3
20260505170401 62 110 1.0 6.0 0.00 0.00 0.00 34 1015.2
20260505170205 62 176 2.0 8.0 0.00 0.00 0.00 34 1015.3
20260505165707 62 125 2.0 8.0 0.00 0.00 0.00 37 1015.3
20260505165202 62 50 1.0 6.0 0.00 0.00 0.00 38 1015.3
20260505164700 62 106 2.0 5.0 0.00 0.00 0.00 38 1015.3
20260505163904 61 46 2.0 5.0 0.00 0.00 0.00 38 1015.3
20260505163401 61 145 2.0 6.0 0.00 0.00 0.00 37 1015.2
20260505162903 61 51 2.0 6.0 0.00 0.00 0.00 39 1015.2
20260505162401 60 59 2.0 7.0 0.00 0.00 0.00 39 1015.3
20260505161903 60 65 2.0 7.0 0.00 0.00 0.00 38 1015.3
20260505161401 60 52 2.0 7.0 0.00 0.00 0.00 38 1015.2
20260505160900 59 67 1.0 7.0 0.00 0.00 0.00 42 1015.4
20260505160404 58 204 0.0 3.0 0.00 0.00 0.00 51 1015.4
20260505152906 54 182 0.0 3.0 0.00 0.00 0.00 56 1015.5
20260505152659 53 182 0.0 3.0 0.00 0.00 0.00 57 1015.5
20260505151906 53 182 0.0 2.0 0.00 0.00 0.00 57 1015.5
20260505151403 53 182 0.0 0.0 0.00 0.00 0.00 57 1015.5
20260505150904 52 182 0.0 0.0 0.00 0.00 0.00 59 1015.5
20260505150406 51 182 0.0 2.0 0.00 0.00 0.00 60 1015.5
20260505140359 47 182 0.0 0.0 0.00 0.00 0.00 63 1015.2
20260505124846 47 182 0.0 0.0 0.00 0.00 0.00 62 1014.6
20260505124342 47 182 0.0 0.0 0.00 0.00 0.00 62 1014.5
20260505123842 47 182 0.0 0.0 0.00 0.00 0.00 62 1014.5
20260505123341 47 182 0.0 0.0 0.00 0.00 0.00 62 1014.3
20260505123139 47 182 0.0 0.0 0.00 0.00 0.00 60 1014.3
20260505122339 47 182 0.0 0.0 0.00 0.00 0.00 61 1014.3
20260505121835 47 182 0.0 0.0 0.00 0.00 0.00 60 1014.2
20260505121335 47 182 0.0 0.0 0.00 0.00 0.00 61 1014.1
20260505120831 47 182 0.0 0.0 0.00 0.00 0.00 61 1014.1
20260505120331 48 182 0.0 0.0 0.00 0.00 0.00 61 1014.1
20260505115829 48 182 0.0 0.0 0.00 0.00 0.00 61 1014.1
20260505115327 48 182 0.0 0.0 0.00 0.00 0.00 60 1014.0
20260505114826 48 182 0.0 0.0 0.00 0.00 0.00 60 1014.2
20260505114325 48 182 0.0 0.0 0.00 0.00 0.00 61 1014.2
20260505113825 48 182 0.0 0.0 0.00 0.00 0.00 61 1014.1
20260505113623 48 182 0.0 0.0 0.00 0.00 0.00 61 1014.0
20260505112821 48 182 0.0 0.0 0.00 0.00 0.00 60 1014.0
20260505112322 49 182 0.0 0.0 0.00 0.00 0.00 61 1013.9
20260505111822 49 182 0.0 0.0 0.00 0.00 0.00 60 1013.9
20260505111319 49 182 0.0 0.0 0.00 0.00 0.00 59 1013.8
20260505110817 49 182 0.0 0.0 0.00 0.00 0.00 59 1013.9
20260505110315 49 182 0.0 0.0 0.00 0.00 0.00 58 1013.9
20260505101803 51 182 0.0 0.0 0.00 0.00 0.00 54 1013.7
20260505101553 52 182 0.0 0.0 0.00 0.00 0.00 54 1013.7
20260505100805 52 182 0.0 0.0 0.00 0.00 0.00 54 1013.7
20260505100303 52 182 0.0 0.0 0.00 0.00 0.00 54 1013.7
20260505095804 52 182 0.0 0.0 0.00 0.00 0.00 54 1013.7
20260505095305 52 182 0.0 0.0 0.00 0.00 0.00 53 1013.6
20260505094805 53 182 0.0 0.0 0.00 0.00 0.00 53 1013.5
20260505094304 53 182 0.0 0.0 0.00 0.00 0.00 52 1013.6
20260505093805 53 182 0.0 0.0 0.00 0.00 0.00 52 1013.4
20260505093304 53 182 0.0 0.0 0.00 0.00 0.00 51 1013.3
20260505093058 54 182 0.0 0.0 0.00 0.00 0.00 51 1013.4
20260505092307 54 182 0.0 2.0 0.00 0.00 0.00 51 1013.5
20260505091806 55 182 0.0 2.0 0.00 0.00 0.00 50 1013.5
20260505091304 55 182 0.0 4.0 0.00 0.00 0.00 49 1013.5
20260505090805 56 182 0.0 4.0 0.00 0.00 0.00 46 1013.4
20260505090305 56 177 0.0 4.0 0.00 0.00 0.00 44 1013.3
20260505090155 58 259 1.0 10.0 0.00 0.00 0.00 36 1013.2
20260505090150 57 250 1.0 4.0 0.00 0.00 0.00 42 1013.3
20260505084806 58 265 1.0 10.0 0.00 0.00 0.00 36 1013.2
20260505084259 58 287 2.0 7.0 0.00 0.00 0.00 36 1013.2
20260505083800 58 280 2.0 8.0 0.00 0.00 0.00 37 1013.1
20260505083258 58 305 2.0 8.0 0.00 0.00 0.00 37 1013.0
20260505082757 58 258 2.0 8.0 0.00 0.00 0.00 37 1013.0
20260505082258 58 108 1.0 5.0 0.00 0.00 0.00 37 1012.9
20260505081756 58 210 1.0 8.0 0.00 0.00 0.00 36 1013.0
20260505081556 58 249 2.0 9.0 0.00 0.00 0.00 36 1013.0
20260505080757 58 267 2.0 9.0 0.00 0.00 0.00 36 1013.0
20260505080258 58 259 2.0 8.0 0.00 0.00 0.00 36 1013.0
20260505075758 59 207 2.0 8.0 0.00 0.00 0.00 36 1012.6
20260505075256 59 285 2.0 9.0 0.00 0.00 0.00 36 1013.0
20260505075057 59 255 2.0 9.0 0.00 0.00 0.00 36 1012.8
20260505074258 59 267 1.0 7.0 0.00 0.00 0.00 36 1012.5
20260505073757 59 289 1.0 9.0 0.00 0.00 0.00 36 1012.5
20260505073556 59 303 2.0 9.0 0.00 0.00 0.00 37 1012.5
20260505072804 59 273 2.0 8.0 0.00 0.00 0.00 37 1012.4
20260505072551 59 346 1.0 7.0 0.00 0.00 0.00 38 1012.4
20260505072100 59 256 2.0 9.0 0.00 0.00 0.00 37 1012.2
20260505071256 60 201 2.0 9.0 0.00 0.00 0.00 38 1012.1
20260505070756 60 252 2.0 9.0 0.00 0.00 0.00 38 1012.2
20260505070257 60 324 2.0 9.0 0.00 0.00 0.00 38 1012.1
20260505065756 60 64 1.0 8.0 0.00 0.00 0.00 38 1012.1
20260505065256 60 241 1.0 8.0 0.00 0.00 0.00 38 1012.0
20260505064755 60 185 1.0 7.0 0.00 0.00 0.00 38 1011.7
20260505064253 60 299 1.0 6.0 0.00 0.00 0.00 38 1011.9
20260505063754 60 75 1.0 10.0 0.00 0.00 0.00 39 1011.7
20260505063251 60 269 1.0 10.0 0.00 0.00 0.00 38 1011.7
20260505062750 60 160 2.0 7.0 0.00 0.00 0.00 38 1011.7
20260505062250 60 217 2.0 8.0 0.00 0.00 0.00 38 1011.6
20260505062053 61 279 2.0 9.0 0.00 0.00 0.00 38 1011.6
20260505061250 61 289 2.0 11.0 0.00 0.00 0.00 38 1011.6
20260505060750 61 293 2.0 11.0 0.00 0.00 0.00 38 1011.6
20260505060249 61 304 2.0 11.0 0.00 0.00 0.00 38 1011.6
20260505055747 61 280 3.0 11.0 0.00 0.00 0.00 38 1011.4
20260505055244 61 295 2.0 10.0 0.00 0.00 0.00 38 1011.2
20260505054744 62 270 2.0 7.0 0.00 0.00 0.00 38 1011.2
20260505054244 62 168 2.0 8.0 0.00 0.00 0.00 38 1011.3
20260505053744 62 73 2.0 11.0 0.00 0.00 0.00 38 1011.1
20260505053545 62 260 2.0 11.0 0.00 0.00 0.00 38 1010.9
20260505052742 62 168 2.0 10.0 0.00 0.00 0.00 38 1010.7
20260505052555 62 311 2.0 10.0 0.00 0.00 0.00 38 1010.7
20260505051744 62 232 1.0 8.0 0.00 0.00 0.00 38 1010.7
20260505051243 63 252 2.0 8.0 0.00 0.00 0.00 38 1010.7
20260505050742 63 235 2.0 8.0 0.00 0.00 0.00 38 1010.6
20260505050240 63 148 2.0 9.0 0.00 0.00 0.00 38 1010.5
20260505041731 64 245 3.0 11.0 0.00 0.00 0.00 38 1009.9
20260505041232 65 280 3.0 11.0 0.00 0.00 0.00 37 1010.0
20260505041034 65 262 3.0 9.0 0.00 0.00 0.00 37 1009.8
20260505040229 65 298 3.0 9.0 0.00 0.00 0.00 36 1009.6